Location: LDNL
(36.4545°S, 141.6685°E)
Time: 11:29:21
(UTC+10:00)

Tiros 1 despin weight - Pass Details

Date: 10 August 2022
Orbit: 590 x 639 km, 48.2° (Epoch: 23 September)

Event Time Altitude Azimuth Distance (km) Brightness Sun altitude
Rises 04:01:27 0° 248° (WSW) 2,948 - -40.7°
Reaches altitude 10° 04:04:21 10° 230° (SW) 2,046 - -40.1°
Maximum altitude 04:07:47 20° 183° (S) 1,519 - -39.4°
Drops below altitude 10° 04:11:14 10° 137° (SE) 2,054 - -38.7°
Exits shadow 04:11:17 10° 136° (SE) 2,067 ? -38.7°
Sets 04:14:10 0° 119° (ESE) 2,963 ? -38.1°
